| time (UTC) | temp C | wind direction | speed KPH | gust KPH | rain 1hr cm | rain 24hr cm | rain mn cm | humidity % | barometer mb |
| 20260504041934 | 6 | 171 | 0.0 | 0.0 | 0.00 | 0.00 | 0.00 | 77 | 1016.2 |
| 20260504041430 | 6 | 163 | 0.0 | 0.0 | 0.00 | 0.00 | 0.00 | 77 | 1016.4 |
| 20260504040926 | 6 | 172 | 0.0 | 0.0 | 0.00 | 0.00 | 0.00 | 76 | 1016.4 |
| 20260504040424 | 6 | 174 | 0.0 | 0.0 | 0.00 | 0.00 | 0.00 | 75 | 1016.2 |
| 20260504035919 | 6 | 186 | 0.0 | 0.0 | 0.00 | 0.00 | 0.00 | 75 | 1016.3 |
| 20260504035417 | 6 | 176 | 1.6 | 1.6 | 0.00 | 0.00 | 0.00 | 75 | 1016.1 |
| 20260504034913 | 6 | 163 | 0.0 | 0.0 | 0.00 | 0.00 | 0.00 | 74 | 1016.4 |
| 20260504034411 | 6 | 171 | 0.0 | 1.6 | 0.00 | 0.00 | 0.00 | 74 | 1016.1 |
| 20260504033908 | 6 | 171 | 0.0 | 0.0 | 0.00 | 0.00 | 0.00 | 73 | 1016.1 |
| 20260504033406 | 6 | 169 | 0.0 | 0.0 | 0.00 | 0.00 | 0.00 | 73 | 1016.1 |
| 20260504032903 | 7 | 171 | 0.0 | 0.0 | 0.00 | 0.00 | 0.00 | 72 | 1016.1 |
| 20260504032359 | 7 | 171 | 0.0 | 0.0 | 0.00 | 0.00 | 0.00 | 71 | 1016.0 |
| 20260504031856 | 7 | 171 | 0.0 | 0.0 | 0.00 | 0.00 | 0.00 | 71 | 1016.2 |
| 20260504031353 | 7 | 171 | 0.0 | 0.0 | 0.00 | 0.00 | 0.00 | 70 | 1016.1 |
| 20260504030849 | 7 | 179 | 1.6 | 1.6 | 0.00 | 0.00 | 0.00 | 69 | 1016.3 |
| 20260504030347 | 7 | 171 | 0.0 | 0.0 | 0.00 | 0.00 | 0.00 | 68 | 1016.4 |
| 20260504025843 | 7 | 171 | 0.0 | 0.0 | 0.00 | 0.00 | 0.00 | 68 | 1016.2 |
| 20260504025340 | 7 | 171 | 0.0 | 0.0 | 0.00 | 0.00 | 0.00 | 67 | 1016.2 |
| 20260504024837 | 8 | 166 | 0.0 | 1.6 | 0.00 | 0.00 | 0.00 | 67 | 1016.2 |
| 20260504024333 | 8 | 171 | 0.0 | 0.0 | 0.00 | 0.00 | 0.00 | 66 | 1016.1 |
| 20260504023830 | 8 | 175 | 0.0 | 0.0 | 0.00 | 0.00 | 0.00 | 65 | 1016.3 |
| 20260504023327 | 8 | 176 | 0.0 | 0.0 | 0.00 | 0.00 | 0.00 | 64 | 1016.1 |
| 20260504022822 | 8 | 174 | 0.0 | 0.0 | 0.00 | 0.00 | 0.00 | 63 | 1016.4 |
| 20260504022320 | 8 | 174 | 0.0 | 0.0 | 0.00 | 0.00 | 0.00 | 62 | 1016.3 |
| 20260504021816 | 8 | 174 | 0.0 | 0.0 | 0.00 | 0.00 | 0.00 | 61 | 1016.4 |
| 20260504021314 | 8 | 176 | 0.0 | 0.0 | 0.00 | 0.00 | 0.00 | 61 | 1016.4 |
| 20260504020810 | 9 | 176 | 0.0 | 0.0 | 0.00 | 0.00 | 0.00 | 60 | 1016.4 |
| 20260504020307 | 9 | 176 | 0.0 | 0.0 | 0.00 | 0.00 | 0.00 | 59 | 1016.5 |
| 20260504015803 | 10 | 176 | 0.0 | 0.0 | 0.00 | 0.00 | 0.00 | 58 | 1016.5 |
| 20260504015259 | 10 | 176 | 0.0 | 0.0 | 0.00 | 0.00 | 0.00 | 58 | 1016.5 |
| 20260504014755 | 10 | 163 | 0.0 | 0.0 | 0.00 | 0.00 | 0.00 | 56 | 1016.3 |
| 20260504014252 | 10 | 163 | 0.0 | 0.0 | 0.00 | 0.00 | 0.00 | 55 | 1016.2 |
| 20260504013750 | 10 | 163 | 0.0 | 0.0 | 0.00 | 0.00 | 0.00 | 53 | 1016.3 |
| 20260504013247 | 10 | 163 | 0.0 | 0.0 | 0.00 | 0.00 | 0.00 | 53 | 1016.5 |
| 20260504012743 | 11 | 162 | 0.0 | 0.0 | 0.00 | 0.00 | 0.00 | 53 | 1016.1 |
| 20260504012241 | 11 | 163 | 0.0 | 0.0 | 0.00 | 0.00 | 0.00 | 51 | 1016.3 |
| 20260504011738 | 11 | 158 | 1.6 | 1.6 | 0.00 | 0.00 | 0.00 | 50 | 1016.1 |
| 20260504011235 | 11 | 170 | 1.6 | 1.6 | 0.00 | 0.00 | 0.00 | 50 | 1016.0 |
| 20260504010731 | 11 | 170 | 0.0 | 1.6 | 0.00 | 0.00 | 0.00 | 51 | 1016.1 |
| 20260504010226 | 11 | 170 | 0.0 | 0.0 | 0.00 | 0.00 | 0.00 | 50 | 1016.3 |
| 20260504005724 | 11 | 171 | 0.0 | 0.0 | 0.00 | 0.00 | 0.00 | 49 | 1016.1 |
| 20260504005221 | 11 | 170 | 0.0 | 1.6 | 0.00 | 0.00 | 0.00 | 49 | 1016.2 |
| 20260504004718 | 12 | 178 | 0.0 | 0.0 | 0.00 | 0.00 | 0.00 | 47 | 1016.1 |
| 20260504004215 | 12 | 174 | 0.0 | 0.0 | 0.00 | 0.00 | 0.00 | 46 | 1016.1 |
| 20260504003712 | 12 | 188 | 1.6 | 1.6 | 0.00 | 0.00 | 0.00 | 45 | 1016.1 |
| 20260504003209 | 12 | 181 | 1.6 | 1.6 | 0.00 | 0.00 | 0.00 | 44 | 1016.1 |
| 20260504002705 | 13 | 187 | 1.6 | 3.2 | 0.00 | 0.00 | 0.00 | 43 | 1016.1 |
| 20260504002203 | 13 | 172 | 3.2 | 4.8 | 0.00 | 0.00 | 0.00 | 42 | 1016.2 |
| 20260504001701 | 13 | 170 | 1.6 | 1.6 | 0.00 | 0.00 | 0.00 | 42 | 1015.9 |
| 20260504001156 | 13 | 184 | 3.2 | 3.2 | 0.00 | 0.00 | 0.00 | 41 | 1015.9 |
| 20260504000653 | 13 | 161 | 0.0 | 1.6 | 0.00 | 0.00 | 0.00 | 41 | 1016.1 |
| 20260504000151 | 13 | 175 | 0.0 | 1.6 | 0.00 | 0.00 | 0.00 | 41 | 1016.0 |
| 20260503235649 | 13 | 193 | 3.2 | 3.2 | 0.00 | 0.00 | 0.00 | 40 | 1016.0 |
| 20260503235145 | 13 | 309 | 0.0 | 0.0 | 0.00 | 0.00 | 0.00 | 40 | 1016.0 |
| 20260503234644 | 14 | 181 | 3.2 | 3.2 | 0.00 | 0.00 | 0.00 | 39 | 1016.0 |
| 20260503234141 | 14 | 181 | 3.2 | 8.0 | 0.00 | 0.00 | 0.00 | 39 | 1016.3 |
| 20260503233638 | 14 | 194 | 1.6 | 1.6 | 0.00 | 0.00 | 0.00 | 38 | 1016.1 |
| 20260503233134 | 14 | 197 | 4.8 | 4.8 | 0.00 | 0.00 | 0.00 | 38 | 1016.1 |
| 20260503232631 | 14 | 149 | 1.6 | 1.6 | 0.00 | 0.00 | 0.00 | 38 | 1016.1 |
| 20260503232128 | 15 | 8 | 8.0 | 9.7 | 0.00 | 0.00 | 0.00 | 37 | 1016.2 |
| 20260503231626 | 15 | 239 | 3.2 | 3.2 | 0.00 | 0.00 | 0.00 | 38 | 1016.2 |
| 20260503231122 | 15 | 257 | 4.8 | 9.7 | 0.00 | 0.00 | 0.00 | 37 | 1016.4 |
| 20260503230619 | 15 | 221 | 6.4 | 9.7 | 0.00 | 0.00 | 0.00 | 37 | 1016.4 |
| 20260503230116 | 15 | 206 | 3.2 | 3.2 | 0.00 | 0.00 | 0.00 | 37 | 1016.2 |
| 20260503225614 | 15 | 300 | 4.8 | 11.3 | 0.00 | 0.00 | 0.00 | 36 | 1016.2 |
| 20260503225113 | 15 | 284 | 3.2 | 3.2 | 0.00 | 0.00 | 0.00 | 36 | 1016.0 |
| 20260503224611 | 15 | 260 | 6.4 | 11.3 | 0.00 | 0.00 | 0.00 | 36 | 1016.2 |
| 20260503224109 | 16 | 184 | 1.6 | 1.6 | 0.00 | 0.00 | 0.00 | 37 | 1016.2 |
| 20260503223607 | 16 | 166 | 0.0 | 1.6 | 0.00 | 0.00 | 0.00 | 37 | 1016.1 |
| 20260503223102 | 15 | 253 | 4.8 | 8.0 | 0.00 | 0.00 | 0.00 | 36 | 1016.3 |
| 20260503222600 | 15 | 195 | 3.2 | 3.2 | 0.00 | 0.00 | 0.00 | 36 | 1016.5 |
| 20260503222058 | 16 | 219 | 4.8 | 8.0 | 0.00 | 0.00 | 0.00 | 35 | 1016.2 |
| 20260503221556 | 16 | 183 | 3.2 | 4.8 | 0.00 | 0.00 | 0.00 | 35 | 1016.5 |
| 20260503221053 | 15 | 274 | 8.0 | 11.3 | 0.00 | 0.00 | 0.00 | 35 | 1016.3 |
| 20260503220549 | 15 | 345 | 8.0 | 11.3 | 0.00 | 0.00 | 0.00 | 35 | 1016.4 |
| 20260503220046 | 15 | 345 | 3.2 | 4.8 | 0.00 | 0.00 | 0.00 | 36 | 1016.3 |
| 20260503215543 | 15 | 245 | 4.8 | 8.0 | 0.00 | 0.00 | 0.00 | 36 | 1016.4 |
| 20260503215040 | 15 | 293 | 8.0 | 20.9 | 0.00 | 0.00 | 0.00 | 35 | 1016.5 |
| 20260503214538 | 16 | 222 | 3.2 | 3.2 | 0.00 | 0.00 | 0.00 | 35 | 1016.3 |
| 20260503214035 | 16 | 11 | 6.4 | 8.0 | 0.00 | 0.00 | 0.00 | 34 | 1016.1 |
| 20260503213533 | 16 | 272 | 4.8 | 8.0 | 0.00 | 0.00 | 0.00 | 36 | 1016.2 |
| 20260503213029 | 16 | 200 | 8.0 | 14.5 | 0.00 | 0.00 | 0.00 | 35 | 1016.1 |
| 20260503212527 | 15 | 208 | 6.4 | 11.3 | 0.00 | 0.00 | 0.00 | 37 | 1016.4 |
| 20260503212024 | 15 | 76 | 3.2 | 4.8 | 0.00 | 0.00 | 0.00 | 36 | 1016.2 |
| 20260503211521 | 15 | 203 | 4.8 | 9.7 | 0.00 | 0.00 | 0.00 | 38 | 1016.3 |
| 20260503211017 | 15 | 271 | 3.2 | 4.8 | 0.00 | 0.00 | 0.00 | 37 | 1016.3 |
| 20260503210514 | 15 | 181 | 1.6 | 3.2 | 0.00 | 0.00 | 0.00 | 37 | 1016.2 |
| 20260503210009 | 15 | 224 | 3.2 | 8.0 | 0.00 | 0.00 | 0.00 | 38 | 1016.4 |
| 20260503205506 | 16 | 209 | 8.0 | 11.3 | 0.00 | 0.00 | 0.00 | 35 | 1016.3 |
| 20260503205002 | 15 | 259 | 4.8 | 4.8 | 0.00 | 0.00 | 0.00 | 35 | 1016.4 |
| 20260503204500 | 15 | 348 | 6.4 | 11.3 | 0.00 | 0.00 | 0.00 | 36 | 1016.5 |
| 20260503203956 | 15 | 259 | 4.8 | 4.8 | 0.00 | 0.00 | 0.00 | 36 | 1016.4 |
| 20260503203454 | 15 | 177 | 4.8 | 9.7 | 0.00 | 0.00 | 0.00 | 36 | 1016.5 |
| 20260503202950 | 15 | 297 | 6.4 | 9.7 | 0.00 | 0.00 | 0.00 | 35 | 1016.9 |
| 20260503202449 | 15 | 260 | 3.2 | 4.8 | 0.00 | 0.00 | 0.00 | 36 | 1016.9 |
| 20260503201947 | 15 | 264 | 8.0 | 11.3 | 0.00 | 0.00 | 0.00 | 36 | 1016.9 |
| 20260503201444 | 15 | 172 | 12.9 | 16.1 | 0.00 | 0.00 | 0.00 | 36 | 1016.8 |
| 20260503200941 | 15 | 173 | 11.3 | 20.9 | 0.00 | 0.00 | 0.00 | 37 | 1016.7 |
| 20260503200437 | 15 | 228 | 4.8 | 8.0 | 0.00 | 0.00 | 0.00 | 36 | 1017.0 |
| 20260503195934 | 15 | 14 | 9.7 | 14.5 | 0.00 | 0.00 | 0.00 | 36 | 1016.9 |
| 20260503195432 | 15 | 220 | 4.8 | 8.0 | 0.00 | 0.00 | 0.00 | 37 | 1017.0 |
| 20260503194928 | 14 | 193 | 1.6 | 1.6 | 0.00 | 0.00 | 0.00 | 38 | 1017.0 |
| 20260503194425 | 14 | 255 | 8.0 | 12.9 | 0.00 | 0.00 | 0.00 | 37 | 1017.4 |
| 20260503193920 | 15 | 244 | 4.8 | 9.7 | 0.00 | 0.00 | 0.00 | 37 | 1017.3 |
| 20260503193416 | 15 | 301 | 17.7 | 24.1 | 0.00 | 0.00 | 0.00 | 36 | 1017.1 |
| 20260503192912 | 15 | 319 | 8.0 | 9.7 | 0.00 | 0.00 | 0.00 | 36 | 1017.4 |
| 20260503192408 | 14 | 181 | 3.2 | 3.2 | 0.00 | 0.00 | 0.00 | 40 | 1017.4 |
| 20260503191904 | 15 | 198 | 8.0 | 9.7 | 0.00 | 0.00 | 0.00 | 38 | 1017.7 |
| 20260503191401 | 15 | 23 | 6.4 | 11.3 | 0.00 | 0.00 | 0.00 | 38 | 1017.6 |
| 20260503190858 | 16 | 312 | 6.4 | 12.9 | 0.00 | 0.00 | 0.00 | 37 | 1017.8 |
| 20260503190355 | 16 | 253 | 9.7 | 14.5 | 0.00 | 0.00 | 0.00 | 35 | 1017.7 |
| 20260503185852 | 15 | 322 | 8.0 | 9.7 | 0.00 | 0.00 | 0.00 | 36 | 1017.9 |
| 20260503185348 | 15 | 323 | 8.0 | 9.7 | 0.00 | 0.00 | 0.00 | 37 | 1018.0 |
| 20260503184848 | 14 | 203 | 1.6 | 1.6 | 0.00 | 0.00 | 0.00 | 39 | 1017.9 |
| 20260503184344 | 15 | 338 | 4.8 | 4.8 | 0.00 | 0.00 | 0.00 | 39 | 1018.0 |
| 20260503183840 | 15 | 357 | 8.0 | 9.7 | 0.00 | 0.00 | 0.00 | 37 | 1018.2 |
| 20260503183338 | 14 | 272 | 3.2 | 3.2 | 0.00 | 0.00 | 0.00 | 38 | 1018.3 |
| 20260503182835 | 15 | 303 | 4.8 | 9.7 | 0.00 | 0.00 | 0.00 | 38 | 1018.5 |
| 20260503182334 | 15 | 315 | 9.7 | 12.9 | 0.00 | 0.00 | 0.00 | 37 | 1018.0 |
| 20260503181831 | 15 | 227 | 3.2 | 4.8 | 0.00 | 0.00 | 0.00 | 38 | 1018.4 |
| 20260503181328 | 13 | 266 | 3.2 | 3.2 | 0.00 | 0.00 | 0.00 | 38 | 1018.2 |
| 20260503180824 | 13 | 301 | 14.5 | 17.7 | 0.00 | 0.00 | 0.00 | 39 | 1018.5 |
| 20260503180322 | 13 | 267 | 6.4 | 9.7 | 0.00 | 0.00 | 0.00 | 39 | 1018.4 |
| 20260503175818 | 14 | 164 | 3.2 | 4.8 | 0.00 | 0.00 | 0.00 | 40 | 1018.4 |
| 20260503175316 | 13 | 269 | 4.8 | 9.7 | 0.00 | 0.00 | 0.00 | 41 | 1018.6 |
| 20260503174812 | 13 | 198 | 1.6 | 4.8 | 0.00 | 0.00 | 0.00 | 40 | 1018.6 |
| 20260503174310 | 15 | 244 | 9.7 | 12.9 | 0.00 | 0.00 | 0.00 | 38 | 1018.5 |
| 20260503173806 | 13 | 211 | 4.8 | 8.0 | 0.00 | 0.00 | 0.00 | 42 | 1018.6 |
| 20260503173301 | 13 | 253 | 4.8 | 8.0 | 0.00 | 0.00 | 0.00 | 38 | 1018.9 |
| 20260503172758 | 13 | 269 | 17.7 | 24.1 | 0.00 | 0.00 | 0.00 | 39 | 1018.6 |
| 20260503172256 | 13 | 295 | 8.0 | 9.7 | 0.00 | 0.00 | 0.00 | 38 | 1018.9 |
| 20260503171752 | 14 | 170 | 6.4 | 8.0 | 0.00 | 0.00 | 0.00 | 38 | 1018.9 |
| 20260503171249 | 13 | 217 | 3.2 | 4.8 | 0.00 | 0.00 | 0.00 | 39 | 1019.1 |
| 20260503170746 | 13 | 201 | 1.6 | 1.6 | 0.00 | 0.00 | 0.00 | 40 | 1019.3 |
| 20260503170243 | 13 | 264 | 4.8 | 4.8 | 0.00 | 0.00 | 0.00 | 39 | 1019.1 |
| 20260503160205 | 12 | 302 | 4.8 | 4.8 | 0.00 | 0.00 | 0.00 | 39 | 1019.8 |
| 20260503150629 | 10 | 249 | 8.0 | 9.7 | 0.00 | 0.00 | 0.00 | 43 | 1020.5 |
| 20260503150125 | 10 | 326 | 8.0 | 9.7 | 0.00 | 0.00 | 0.00 | 42 | 1020.2 |
| 20260503131019 | 7 | 287 | 4.8 | 4.8 | 0.00 | 0.00 | 0.00 | 63 | 1020.5 |
| 20260503130516 | 7 | 190 | 1.6 | 1.6 | 0.00 | 0.00 | 0.00 | 65 | 1020.6 |
| 20260503110413 | 0 | 175 | 0.0 | 0.0 | 0.00 | 0.00 | 0.00 | 90 | 1019.5 |
| 20260503090303 | 0 | 175 | 0.0 | 0.0 | 0.00 | 0.00 | 0.00 | 88 | 1018.9 |
| 20260503081237 | 1 | 175 | 0.0 | 0.0 | 0.00 | 0.00 | 0.00 | 87 | 1018.9 |
| 20260503080732 | 1 | 175 | 0.0 | 0.0 | 0.00 | 0.00 | 0.00 | 87 | 1018.9 |
| 20260503080230 | 1 | 178 | 0.0 | 0.0 | 0.00 | 0.00 | 0.00 | 87 | 1018.8 |
| 20260503072706 | 1 | 175 | 0.0 | 0.0 | 0.00 | 0.00 | 0.00 | 87 | 1019.1 |
| 20260503072203 | 1 | 175 | 0.0 | 0.0 | 0.00 | 0.00 | 0.00 | 87 | 1018.8 |
| 20260503071700 | 1 | 167 | 0.0 | 0.0 | 0.00 | 0.00 | 0.00 | 88 | 1018.8 |
| 20260503071156 | 1 | 162 | 0.0 | 1.6 | 0.00 | 0.00 | 0.00 | 88 | 1018.8 |
| 20260503070653 | 1 | 164 | 0.0 | 0.0 | 0.00 | 0.00 | 0.00 | 88 | 1018.7 |
| 20260503070152 | 1 | 175 | 0.0 | 0.0 | 0.00 | 0.00 | 0.00 | 88 | 1018.7 |
| 20260503060115 | 1 | 175 | 0.0 | 0.0 | 0.00 | 0.00 | 0.00 | 87 | 1018.9 |
| 20260503055107 | 1 | 175 | 0.0 | 0.0 | 0.00 | 0.00 | 0.00 | 87 | 1018.7 |
| 20260503054603 | 1 | 175 | 0.0 | 0.0 | 0.00 | 0.00 | 0.00 | 87 | 1018.8 |
| 20260503054100 | 1 | 175 | 0.0 | 1.6 | 0.00 | 0.00 | 0.00 | 87 | 1018.8 |
| 20260503053558 | 1 | 175 | 0.0 | 0.0 | 0.00 | 0.00 | 0.00 | 87 | 1019.1 |
| 20260503053056 | 1 | 175 | 0.0 | 0.0 | 0.00 | 0.00 | 0.00 | 87 | 1019.1 |
| 20260503052552 | 1 | 170 | 0.0 | 0.0 | 0.00 | 0.00 | 0.00 | 87 | 1018.8 |
| 20260503052049 | 1 | 167 | 0.0 | 0.0 | 0.00 | 0.00 | 0.00 | 87 | 1018.9 |
| 20260503051544 | 1 | 167 | 0.0 | 0.0 | 0.00 | 0.00 | 0.00 | 87 | 1019.2 |
| 20260503051042 | 1 | 165 | 0.0 | 0.0 | 0.00 | 0.00 | 0.00 | 86 | 1019.1 |
| 20260503050538 | 1 | 162 | 0.0 | 0.0 | 0.00 | 0.00 | 0.00 | 86 | 1018.9 |
| 20260503050035 | 1 | 174 | 0.0 | 0.0 | 0.00 | 0.00 | 0.00 | 86 | 1019.2 |
| 20260503045532 | 1 | 167 | 0.0 | 1.6 | 0.00 | 0.00 | 0.00 | 86 | 1019.2 |
| 20260503045030 | 1 | 166 | 0.0 | 1.6 | 0.00 | 0.00 | 0.00 | 86 | 1019.1 |
| 20260503044526 | 1 | 168 | 0.0 | 0.0 | 0.00 | 0.00 | 0.00 | 86 | 1019.1 |
| 20260503044024 | 1 | 154 | 1.6 | 1.6 | 0.00 | 0.00 | 0.00 | 85 | 1019.3 |
| 20260503043520 | 2 | 167 | 0.0 | 0.0 | 0.00 | 0.00 | 0.00 | 85 | 1019.1 |
| 20260503043017 | 2 | 173 | 0.0 | 0.0 | 0.00 | 0.00 | 0.00 | 85 | 1019.1 |
| 20260503042514 | 2 | 168 | 0.0 | 0.0 | 0.00 | 0.00 | 0.00 | 85 | 1019.2 |